| time (UTC) | temp F | wind direction | speed MPH | gust MPH | rain 1hr in | rain 24hr in | rain mn in | humidity % | barometer mb |
| 20260904053923 | 57 | 105 | 3.0 | 7.0 | 0.00 | 0.03 | 0.03 | 95 | 1008.4 |
| 20260904051933 | 54 | 113 | 2.0 | 4.0 | 0.00 | 0.03 | 0.03 | 94 | 1008.4 |
| 20260904050423 | 54 | 84 | 2.0 | 4.0 | 0.00 | 0.03 | 0.03 | 94 | 1008.3 |
| 20260904044920 | 54 | 65 | 1.0 | 4.0 | 0.00 | 0.03 | 0.03 | 94 | 1008.1 |
| 20260904042935 | 54 | 82 | 0.0 | 0.0 | 0.00 | 0.03 | 0.03 | 91 | 1008.0 |
| 20260904041423 | 57 | 81 | 0.0 | 2.0 | 0.00 | 0.03 | 0.03 | 92 | 1008.2 |
| 20260904035432 | 57 | 104 | 4.0 | 7.0 | 0.00 | 0.03 | 0.03 | 92 | 1008.1 |
| 20260904033928 | 59 | 74 | 3.0 | 7.0 | 0.00 | 0.03 | 0.03 | 90 | 1008.0 |
| 20260904031928 | 60 | 90 | 2.0 | 4.0 | 0.00 | 0.03 | 0.03 | 89 | 1008.1 |
| 20260904025936 | 60 | 93 | 2.0 | 6.0 | 0.00 | 0.03 | 0.03 | 90 | 1007.8 |
| 20260904023948 | 60 | 90 | 1.0 | 3.0 | 0.00 | 0.03 | 0.03 | 88 | 1007.7 |
| 20260904021927 | 62 | 93 | 6.0 | 8.0 | 0.00 | 0.03 | 0.03 | 87 | 1007.2 |
| 20260904020418 | 63 | 82 | 5.0 | 10.0 | 0.00 | 0.03 | 0.03 | 84 | 1006.8 |
| 20260904014427 | 65 | 69 | 5.0 | 10.0 | 0.00 | 0.03 | 0.03 | 80 | 1006.8 |
| 20260904011920 | 67 | 84 | 7.0 | 12.0 | 0.00 | 0.03 | 0.03 | 76 | 1006.5 |
| 20260904005932 | 68 | 65 | 9.0 | 16.0 | 0.00 | 0.03 | 0.03 | 75 | 1005.9 |
| 20260904003919 | 69 | 96 | 11.0 | 17.0 | 0.00 | 0.03 | 0.03 | 72 | 1006.0 |
| 20260904001923 | 69 | 64 | 11.0 | 14.0 | 0.00 | 0.03 | 0.03 | 72 | 1005.8 |
| 20260903235934 | 70 | 92 | 11.0 | 17.0 | 0.00 | 0.03 | 0.03 | 71 | 1005.6 |
| 20260903233930 | 70 | 73 | 7.0 | 16.0 | 0.00 | 0.03 | 0.03 | 71 | 1005.5 |
| 20260903232427 | 71 | 57 | 11.0 | 16.0 | 0.00 | 0.03 | 0.03 | 71 | 1005.4 |
| 20260903230917 | 71 | 75 | 9.0 | 16.0 | 0.00 | 0.03 | 0.03 | 71 | 1005.2 |
| 20260903224932 | 72 | 94 | 12.0 | 17.0 | 0.00 | 0.03 | 0.03 | 71 | 1005.0 |
| 20260903222931 | 72 | 103 | 10.0 | 15.0 | 0.00 | 0.03 | 0.03 | 70 | 1005.0 |
| 20260903221429 | 74 | 97 | 11.0 | 18.0 | 0.00 | 0.03 | 0.03 | 68 | 1005.0 |
| 20260903215427 | 74 | 90 | 10.0 | 17.0 | 0.00 | 0.03 | 0.03 | 68 | 1004.9 |
| 20260903213415 | 74 | 101 | 11.0 | 15.0 | 0.00 | 0.03 | 0.03 | 67 | 1004.8 |
| 20260903211914 | 72 | 95 | 9.0 | 15.0 | 0.00 | 0.03 | 0.03 | 71 | 1004.9 |
| 20260903205927 | 72 | 80 | 10.0 | 16.0 | 0.00 | 0.03 | 0.03 | 71 | 1004.9 |
| 20260903203925 | 73 | 52 | 9.0 | 16.0 | 0.00 | 0.03 | 0.03 | 69 | 1005.0 |
| 20260903201920 | 73 | 110 | 8.0 | 17.0 | 0.00 | 0.03 | 0.03 | 70 | 1005.1 |
| 20260903195932 | 72 | 90 | 9.0 | 14.0 | 0.00 | 0.03 | 0.03 | 71 | 1005.4 |
| 20260903193925 | 71 | 88 | 10.0 | 14.0 | 0.00 | 0.03 | 0.03 | 72 | 1005.7 |
| 20260903192428 | 69 | 111 | 8.0 | 18.0 | 0.00 | 0.03 | 0.03 | 76 | 1005.6 |
| 20260903190417 | 69 | 92 | 10.0 | 16.0 | 0.00 | 0.03 | 0.03 | 75 | 1005.6 |
| 20260903184424 | 69 | 105 | 6.0 | 15.0 | 0.00 | 0.03 | 0.03 | 75 | 1005.7 |
| 20260903182425 | 68 | 103 | 5.0 | 15.0 | 0.00 | 0.03 | 0.03 | 78 | 1005.5 |
| 20260903180432 | 67 | 111 | 8.0 | 12.0 | 0.00 | 0.03 | 0.03 | 79 | 1005.2 |
| 20260903174925 | 66 | 88 | 6.0 | 11.0 | 0.00 | 0.03 | 0.03 | 83 | 1005.2 |
| 20260903172928 | 66 | 77 | 2.0 | 9.0 | 0.00 | 0.03 | 0.03 | 84 | 1005.3 |
| 20260903171426 | 65 | 126 | 3.0 | 7.0 | 0.00 | 0.03 | 0.03 | 84 | 1005.2 |
| 20260903165425 | 65 | 102 | 2.0 | 7.0 | 0.00 | 0.03 | 0.03 | 84 | 1005.3 |
| 20260903163419 | 65 | 96 | 3.0 | 9.0 | 0.00 | 0.03 | 0.03 | 85 | 1005.0 |
| 20260903161913 | 65 | 138 | 1.0 | 6.0 | 0.00 | 0.03 | 0.03 | 87 | 1004.9 |
| 20260903155926 | 64 | 126 | 3.0 | 7.0 | 0.00 | 0.03 | 0.03 | 89 | 1004.9 |
| 20260903153930 | 63 | 182 | 1.0 | 9.0 | 0.00 | 0.03 | 0.03 | 91 | 1004.8 |
| 20260903152419 | 62 | 188 | 2.0 | 6.0 | 0.00 | 0.03 | 0.03 | 93 | 1004.4 |
| 20260903150913 | 61 | 163 | 0.0 | 0.0 | 0.00 | 0.03 | 0.03 | 93 | 1003.8 |
| 20260903144934 | 60 | 164 | 0.0 | 0.0 | 0.00 | 0.04 | 0.03 | 93 | 1003.2 |
| 20260903143411 | 59 | 337 | 0.0 | 5.0 | 0.00 | 0.04 | 0.03 | 94 | 1003.1 |
| 20260903141909 | 59 | 73 | 7.0 | 11.0 | 0.00 | 0.04 | 0.03 | 94 | 1002.4 |
| 20260903135934 | 59 | 77 | 9.0 | 15.0 | 0.00 | 0.04 | 0.03 | 94 | 1002.4 |
| 20260903134430 | 59 | 72 | 11.0 | 15.0 | 0.00 | 0.04 | 0.03 | 94 | 1002.4 |
| 20260903131930 | 59 | 221 | 0.0 | 4.0 | 0.03 | 0.04 | 0.03 | 93 | 1004.0 |
| 20260903130426 | 59 | 214 | 5.0 | 10.0 | 0.03 | 0.04 | 0.03 | 93 | 1004.9 |
| 20260903124436 | 59 | 42 | 11.0 | 25.0 | 0.02 | 0.03 | 0.02 | 91 | 1002.3 |
| 20260903122433 | 59 | 90 | 10.0 | 16.0 | 0.00 | 0.01 | 0.00 | 90 | 1005.6 |
| 20260903120414 | 59 | 71 | 8.0 | 14.0 | 0.00 | 0.01 | 0.00 | 90 | 1006.2 |
| 20260903114424 | 60 | 84 | 7.0 | 11.0 | 0.00 | 0.01 | 0.00 | 89 | 1006.4 |
| 20260903112428 | 60 | 87 | 5.0 | 11.0 | 0.00 | 0.01 | 0.00 | 89 | 1006.4 |
| 20260903110920 | 60 | 93 | 5.0 | 8.0 | 0.00 | 0.01 | 0.00 | 90 | 1006.4 |
| 20260903104932 | 60 | 93 | 2.0 | 8.0 | 0.00 | 0.01 | 0.00 | 90 | 1006.6 |
| 20260903102923 | 60 | 80 | 7.0 | 9.0 | 0.00 | 0.01 | 0.00 | 90 | 1006.3 |
| 20260903101422 | 60 | 84 | 7.0 | 10.0 | 0.00 | 0.01 | 0.00 | 90 | 1006.4 |
| 20260903095429 | 60 | 86 | 5.0 | 10.0 | 0.00 | 0.01 | 0.00 | 91 | 1006.8 |
| 20260903093920 | 59 | 85 | 5.0 | 9.0 | 0.00 | 0.01 | 0.00 | 91 | 1006.7 |
| 20260903091928 | 59 | 79 | 7.0 | 12.0 | 0.00 | 0.01 | 0.00 | 91 | 1006.3 |
| 20260903085930 | 59 | 85 | 9.0 | 14.0 | 0.00 | 0.01 | 0.00 | 91 | 1006.3 |
| 20260903084423 | 59 | 81 | 8.0 | 14.0 | 0.00 | 0.01 | 0.00 | 91 | 1006.2 |
| 20260903082422 | 59 | 94 | 10.0 | 14.0 | 0.00 | 0.01 | 0.00 | 91 | 1006.0 |
| 20260903080912 | 59 | 80 | 11.0 | 15.0 | 0.00 | 0.01 | 0.00 | 92 | 1005.7 |
| 20260903074929 | 59 | 82 | 10.0 | 15.0 | 0.00 | 0.01 | 0.00 | 92 | 1006.0 |
| 20260903072939 | 59 | 76 | 9.0 | 14.0 | 0.00 | 0.01 | 0.00 | 92 | 1006.0 |
| 20260903070936 | 59 | 81 | 9.0 | 14.0 | 0.00 | 0.01 | 0.00 | 92 | 1006.0 |
| 20260903065423 | 60 | 76 | 9.0 | 14.0 | 0.00 | 0.01 | 0.00 | 91 | 1006.0 |
| 20260903063430 | 60 | 88 | 8.0 | 12.0 | 0.00 | 0.01 | 0.00 | 91 | 1005.9 |
| 20260903061919 | 60 | 86 | 8.0 | 12.0 | 0.00 | 0.01 | 0.00 | 91 | 1005.8 |
| 20260903055947 | 60 | 78 | 7.0 | 12.0 | 0.00 | 0.01 | 0.00 | 90 | 1006.0 |